Weather History for Grand Island, NE

Change the Weather History Date:

Saturday, September 22, 2012

  Actual Average Record
Temperature  
Mean Temperature 54 °F 62 °F  
Max Temperature 68 °F 76 °F 98 °F (1937)
Min Temperature 40 °F 49 °F 25 °F (1995)
Degree Days  
Heating Degree Days 11 5  
Month to date heating degree days 35 56  
Since 1 July heating degree days 39 66  
Cooling Degree Days 0 2  
Month to date cooling degree days 117 96  
Year to date cooling degree days 1501 1010  
Growing Degree Days 4 (Base 50)    
Moisture  
Dew Point 30 °F    
Average Humidity 45    
Maximum Humidity 70    
Minimum Humidity 20    
Precipitation  
Precipitation 0.00 in 0.07 in 2.99 in (1902)
Month to date precipitation 0.47 1.67  
Year to date precipitation 8.58 22.44  
Snow  
Snow 0.00 in 0.00 in - ()
Month to date snowfall 0.0 0.0  
Since 1 July snowfall 0.0 0.0  
Since 1 September snowfall 0.0 0.0  
Snow Depth 0.00 in    
Sea Level Pressure  
Sea Level Pressure 30.23 in    
Wind  
Wind Speed 7 mph (NNE)    
Max Wind Speed 16 mph    
Max Gust Speed 22 mph    
Visibility 10 miles    
Events      
T = Trace of Precipitation, MM = Missing Value Source: NWS Daily Summary

Daily Weather History Graph

Daily Weather History Graph

Search for Another Location

Airport:

Trip Planner

Search our weather history database for the weather conditions in past years. The results will help you decide how hot, cold, wet, or windy it might be!

Date:

Astronomy

Sep. 22, 2012 Rise Set
Actual Time 7:21 AM CDT 7:29 PM CDT
Civil Twilight 6:53 AM CDT 7:56 PM CDT
Nautical Twilight 6:21 AM CDT 8:28 PM CDT
Astronomical Twilight 5:48 AM CDT 9:01 PM CDT
Moon 2:43 PM CDT (9/22) No Moon Set
Length of Visible Light 13h 03m
Length of Day
12h 08m
Waxing Crescent, 49% of the Moon is Illuminated
Sep 22
Waxing Crescent
Sep 22
First Quarter
Sep 29
Full
Oct 8
Last Quarter
Oct 15
New

Hourly Weather History & Observations

Time (CDT) Temp. Windchill Dew Point Humidity Pressure Visibility Wind Dir Wind Speed Gust Speed Precip Events Conditions
12:53 AM 57.9 °F - 37.9 °F 47% 30.01 in 10.0 mi NNW 10.4 mph - N/A   Clear
1:53 AM 57.0 °F - 36.0 °F 45% 30.06 in 10.0 mi North 15.0 mph - N/A   Clear
2:53 AM 54.0 °F - 34.0 °F 47% 30.10 in 10.0 mi NNE 9.2 mph - N/A   Clear
3:53 AM 48.9 °F - 33.1 °F 54% 30.12 in 10.0 mi North 8.1 mph - N/A   Clear
4:53 AM 46.0 °F 42.5 °F 34.0 °F 63% 30.15 in 10.0 mi North 6.9 mph - N/A   Clear
5:53 AM 45.0 °F 41.2 °F 33.1 °F 63% 30.19 in 10.0 mi North 6.9 mph - N/A   Clear
6:53 AM 41.0 °F 35.8 °F 32.0 °F 70% 30.23 in 10.0 mi North 8.1 mph - N/A   Clear
7:53 AM 44.6 °F 41.4 °F 33.8 °F 66% 30.26 in 10.0 mi North 5.8 mph - N/A   Clear
8:53 AM 46.9 °F - 30.9 °F 54% 30.30 in 10.0 mi North 10.4 mph - N/A   Clear
9:53 AM 51.1 °F - 28.9 °F 43% 30.32 in 10.0 mi NNE 10.4 mph - N/A   Clear
10:53 AM 55.0 °F - 28.9 °F 37% 30.32 in 10.0 mi North 11.5 mph - N/A   Clear
11:53 AM 57.9 °F - 26.1 °F 30% 30.33 in 10.0 mi North 9.2 mph 17.3 mph N/A   Clear
12:53 PM 61.0 °F - 25.0 °F 25% 30.31 in 10.0 mi NNW 8.1 mph - N/A   Clear
1:53 PM 63.0 °F - 26.1 °F 25% 30.30 in 10.0 mi North 8.1 mph 17.3 mph N/A   Clear
2:53 PM 66.0 °F - 26.1 °F 22% 30.28 in 10.0 mi North 8.1 mph 18.4 mph N/A   Clear
3:53 PM 66.9 °F - 25.0 °F 21% 30.26 in 10.0 mi North 10.4 mph - N/A   Clear
4:53 PM 66.9 °F - 25.0 °F 21% 30.25 in 10.0 mi Calm Calm - N/A   Clear
5:53 PM 66.9 °F - 26.1 °F 21% 30.25 in 10.0 mi NNE 8.1 mph - N/A   Clear
6:53 PM 62.1 °F - 27.0 °F 26% 30.26 in 10.0 mi ENE 5.8 mph - N/A   Clear
7:53 PM 54.0 °F - 28.9 °F 38% 30.27 in 10.0 mi East 4.6 mph - N/A   Clear
8:53 PM 53.1 °F - 28.9 °F 40% 30.27 in 10.0 mi SE 4.6 mph - N/A   Clear
9:53 PM 50.0 °F - 27.0 °F 41% 30.28 in 10.0 mi ESE 5.8 mph - N/A   Clear
10:53 PM 46.9 °F - 27.0 °F 46% 30.30 in 10.0 mi ESE 3.5 mph - N/A   Clear
11:53 PM 45.0 °F 43.5 °F 27.0 °F 49% 30.30 in 10.0 mi SSE 3.5 mph - N/A   Clear